Location: Krakow
(50.0830°N, 19.9170°E)
Time: 06:37:00
(UTC+02:00)

A-11 Canister half - Pass Details

Date: 17 March 2026
Orbit: 1523 x 1684 km, 47.3° (Epoch: 18 April)

Event Time Altitude Azimuth Distance (km) Brightness Sun altitude
Rises 06:16:44 0° 174° (S) 4,902 11.8 3.4°
Reaches altitude 10° 06:22:09 10° 150° (SSE) 3,894 11.7 4.3°
Maximum altitude 06:26:25 14° 124° (SE) 3,586 12.3 5.0°
Drops below altitude 10° 06:30:38 10° 98° (E) 3,851 14.4 5.7°
Sets 06:35:53 0° 75° (ENE) 4,805 13.0 6.5°
